• MPC Preparation (Info)

  • MPEC 2009-Q28 : 2009 QH6

    The following Minor Planet Electronic Circular may be linked-to from your own Web pages, but must not otherwise be redistributed electronically.

    A form allowing access to any MPEC is at the bottom of this page.


    Read MPEC 2009-Q27 Read MPEC 2009-Q29


    M.P.E.C. 2009-Q28                                Issued 2009 Aug. 19, 23:10 UT
    
         The Minor Planet Electronic Circulars contain information on unusual
             minor planets and routine data on comets.  They are published
       on behalf of Commission 20 of the International Astronomical Union by the
              Minor Planet Center, Smithsonian Astrophysical Observatory,
                              Cambridge, MA 02138, U.S.A.
    
                 Prepared using the Tamkin Foundation Computer Network
    
                                  MPC@CFA.HARVARD.EDU
              URL http://www.cfa.harvard.edu/iau/mpc.html  ISSN 1523-6714
    
                                       2009 QH6
    
    Observations:
         K09Q06H* C2009 08 19.40403 00 26 20.40 +26 24 15.1          18.0 V EQ028703
         K09Q06H  C2009 08 19.41080 00 26 19.82 +26 26 11.9          18.1 V EQ028703
         K09Q06H  C2009 08 19.42450 00 26 18.70 +26 30 08.8          18.2 V EQ028703
         K09Q06H  C2009 08 19.45481 00 26 16.18 +26 38 51.9          18.2 V EQ028703
         K09Q06H  C2009 08 19.45626 00 26 16.04 +26 39 17.7          18.3 V EQ028703
         K09Q06H  C2009 08 19.45772 00 26 15.90 +26 39 42.0          18.3 V EQ028703
         K09Q06H  C2009 08 19.47612 00 26 14.46 +26 44 59.3          18.3 V EQ028703
         K09Q06H  C2009 08 19.47757 00 26 14.35 +26 45 24.1          18.4 V EQ028703
         K09Q06H  C2009 08 19.48049 00 26 14.10 +26 46 14.4          18.5 V EQ028703
         K09Q06H  C2009 08 19.87231 00 26 12.01 +28 39 16.3          19.2 V EQ028A74
         K09Q06H  C2009 08 19.88605 00 26 11.57 +28 43 13.8                 EQ028J95
         K09Q06H  C2009 08 19.88665 00 26 11.39 +28 43 33.3          19.1 V EQ028A74
         K09Q06H  C2009 08 19.88915 00 26 11.37 +28 44 07.8                 EQ028J95
         K09Q06H  C2009 08 19.89827 00 26 11.04 +28 46 50.7          19.2 R EQ028J95
         K09Q06H  C2009 08 19.90079 00 26 10.74 +28 47 46.5          19.4 V EQ028A74
         K09Q06H  C2009 08 19.90328 00 26 10.91 +28 48 36.4          18.8 V EQ028151
         K09Q06H  C2009 08 19.90503 00 26 10.87 +28 49 07.7          19.4 V EQ028151
         K09Q06H  C2009 08 19.90678 00 26 10.74 +28 49 38.1          19.0 V EQ028151
         K09Q06H  C2009 08 19.91210 00 26 10.34 +28 51 13.4          19.4 V EQ028151
         K09Q06H  C2009 08 19.94101 00 26 08.73 +28 59 49.6          19.6 V EQ028151
    
    Observer details:
    151 Eschenberg Observatory, Winterthur.  Observer M. Griesser.  0.40-m f/5.9
        Hypergraph + CCD.
    703 Catalina Sky Survey.  Observer R. E. Hill.  Measurers E. C. Beshore,
        A. Boattini, G. J. Garradd, A. R. Gibbs, A. D. Grauer, R. E. Hill,
        R. A. Kowalski, S. M. Larson, R. H. McNaught.  0.68-m Schmidt + CCD.
    A74 Bergen-Enkheim Observatory.  Observer U. Suessenberger.  0.4-m f/4
        Newtonian reflector.
    J95 Great Shefford.  Observer P. Birtwhistle.  0.40-m f/6.0 Schmidt-Cassegrain
        + CCD.
    
    Orbital elements:
    2009 QH6                                                 Earth MOID = 0.0025 AU
    Epoch 2009 June 18.0 TT = JDT 2455000.5                 MPC
    M 227.24344              (2000.0)            P               Q
    n   0.90174362     Peri.  102.87441     +0.37715437     -0.91475673
    a   1.0610781      Node   323.87424     +0.72557063     +0.38902217
    e   0.1842382      Incl.   14.22037     +0.57558826     +0.10900402
    P   1.09           H   22.7           G   0.15           U   9
    Residuals in seconds of arc
    090819 703  0.1-  0.3+    090819 703  0.3+  0.3-    090819 A74  0.5+  0.5+
    090819 703  0.3-  0.0     090819 703  0.1+  0.2-    090819 151  0.1-  1.1+
    090819 703  0.0   0.1-    090819 A74  0.4-  0.4-    090819 151  0.6+  1.1+
    090819 703  0.0   0.3-    090819 J95  0.5+  0.8+    090819 151  0.1+  0.2+
    090819 703  0.3-  0.5+    090819 A74  0.0   0.2+    090819 151  1.4-  0.3+
    090819 703  0.5-  0.4-    090819 J95  0.6-  0.6-    090819 151  0.4-  0.8-
    090819 703  0.3+  0.1-    090819 J95  0.0   0.9-
    
    Ephemeris:
    2009 QH6                 a,e,i = 1.06, 0.18, 14                  q = 0.8656
    Date    TT    R. A. (2000) Decl.     Delta      r     Elong.  Phase     V
    2009 08 17    00 27.10   +15 34.6    0.0685   1.058   130.6    46.6    18.8
    2009 08 22    00 24.55   +39 23.4    0.0613   1.043   119.3    57.8    18.8
    2009 08 27    00 15.81   +63 47.8    0.0658   1.027   103.0    73.4    19.4
    2009 09 01    23 35.25   +82 00.3    0.0795   1.012    89.4    86.1    20.2
    2009 09 06    14 07.08   +85 09.0    0.0982   0.996    80.2    94.2    21.0
    2009 09 11    13 05.52   +77 11.7    0.119    0.981    74.0    99.3    21.6
    2009 09 16    12 53.12   +71 18.6    0.141    0.966    69.7   102.4    22.1
    
    Sonia Keys                   (C) Copyright 2009 MPC           M.P.E.C. 2009-Q28
    

    Read MPEC 2009-Q27 Read MPEC 2009-Q29


    MPEC number:

    Enter an MPEC number in one of the following forms:

    • 1997-B01 (the full form)
    • J97B01 (the packed version of the full form)
    • B01 (the abbreviated form)